Yankton, SD

1:21 AM CST on December 12, 2017 (GMT -0600)
Gurney Municipal

Weather History for KYKN - June, 2013

Change the Weather History Date:

Wednesday, June 12, 2013

  Actual Average Record
Temperature  
Mean Temperature 68 °F -  
Max Temperature 75 °F 82 °F 101 °F (1990)
Min Temperature 59 °F 57 °F 44 °F (2012)
Cooling Degree Days 2    
Growing Degree Days 18 (Base 50)    
Moisture  
Dew Point 61 °F    
Average Humidity 77    
Maximum Humidity 94    
Minimum Humidity 61    
Precipitation  
Precipitation 0.29 in - - ()
Sea Level Pressure  
Sea Level Pressure 29.87 in    
Wind  
Wind Speed 13 mph (NNW)    
Max Wind Speed 24 mph    
Max Gust Speed 31 mph    
Visibility 10 miles    
Events Thunderstorm    
Averages and records for this station are not official NWS values.
T = Trace of Precipitation, MM = Missing Value Source: NWS Daily Summary

Daily Weather History Graph

Daily Weather History Graph

Search for Another Location

Airport or City:

Trip Planner

Search our weather history database for the weather conditions in past years. The results will help you decide how hot, cold, wet, or windy it might be!

Date:

Astronomy

Jun. 12, 2013 Rise Set
Actual Time 5:50 AM CDT 9:09 PM CDT
Civil Twilight 5:15 AM CDT 9:44 PM CDT
Nautical Twilight 4:29 AM CDT 10:29 PM CDT
Astronomical Twilight 3:33 AM CDT 11:25 PM CDT
Moon 9:35 AM CDT 11:40 PM CDT
Length of Visible Light 16h 29m
Length of Day
15h 18m
Waxing Crescent, 14% of the Moon is Illuminated
Jun 12
Waxing Crescent
Jun 16
First Quarter
Jun 23
Full
Jun 29
Last Quarter
Jul 8
New

Hourly Weather History & Observations

Time (CDT) Temp. Dew Point Humidity Pressure Visibility Wind Dir Wind Speed Gust Speed Precip Events Conditions
12:15 AM 75.2 °F 69.8 °F 83% 29.77 in 10.0 mi SE 10.4 mph - N/A Thunderstorm Thunderstorm
12:35 AM 71.6 °F 69.8 °F 94% 29.73 in 10.0 mi ENE 9.2 mph - 0.26 in Thunderstorm Thunderstorm
12:55 AM 73.4 °F 69.8 °F 88% 29.72 in 10.0 mi South 12.7 mph 25.3 mph 0.26 in Thunderstorm Clear
1:15 AM 73.4 °F 69.8 °F 88% 29.79 in 10.0 mi NW 4.6 mph - N/A   Partly Cloudy
1:35 AM 73.4 °F 69.8 °F 88% 29.83 in 10.0 mi South 11.5 mph - 0.01 in Thunderstorm Scattered Clouds
1:55 AM 73.4 °F 69.8 °F 88% 29.64 in 10.0 mi NE 24.2 mph - 0.03 in   Mostly Cloudy
2:15 AM 73.4 °F 69.8 °F 88% 29.68 in 10.0 mi East 16.1 mph 24.2 mph N/A   Partly Cloudy
2:35 AM 73.4 °F 69.8 °F 88% 29.68 in 10.0 mi East 11.5 mph - N/A   Partly Cloudy
2:55 AM 71.6 °F 69.8 °F 94% 29.66 in 10.0 mi East 9.2 mph - N/A   Partly Cloudy
3:15 AM 71.6 °F 68.0 °F 88% 29.62 in 10.0 mi SE 9.2 mph - N/A   Clear
3:35 AM 71.6 °F 68.0 °F 88% 29.66 in 10.0 mi SE 11.5 mph 20.7 mph N/A   Clear
3:55 AM 71.6 °F 68.0 °F 88% 29.60 in 10.0 mi East 15.0 mph 25.3 mph N/A   Clear
4:15 AM 71.6 °F 66.2 °F 83% 29.66 in 10.0 mi Calm Calm - N/A   Clear
4:35 AM 71.6 °F 68.0 °F 88% 29.71 in 10.0 mi NW 10.4 mph - N/A   Partly Cloudy
4:55 AM 69.8 °F 68.0 °F 94% 29.73 in 10.0 mi NW 11.5 mph - N/A   Clear
5:15 AM 69.8 °F 66.2 °F 88% 29.75 in 10.0 mi NNW 12.7 mph - N/A   Clear
5:35 AM 69.8 °F 66.2 °F 88% 29.74 in 9.0 mi North 12.7 mph - N/A   Clear
5:55 AM 68.0 °F 64.4 °F 88% 29.75 in 9.0 mi North 11.5 mph - N/A   Clear
6:15 AM 68.0 °F 64.4 °F 88% 29.77 in 9.0 mi NNW 10.4 mph - N/A   Scattered Clouds
6:35 AM 68.0 °F 64.4 °F 88% 29.79 in 10.0 mi NNW 15.0 mph 19.6 mph N/A   Overcast
6:55 AM 68.0 °F 62.6 °F 83% 29.79 in 10.0 mi North 11.5 mph 20.7 mph N/A   Mostly Cloudy
7:15 AM 68.0 °F 62.6 °F 83% 29.76 in 10.0 mi NNE 15.0 mph 19.6 mph N/A   Partly Cloudy
7:35 AM 68.0 °F 62.6 °F 83% 29.76 in 10.0 mi NE 13.8 mph 21.9 mph N/A   Clear
7:55 AM 69.8 °F 62.6 °F 78% 29.77 in 10.0 mi NNE 10.4 mph 20.7 mph N/A   Clear
8:15 AM 69.8 °F 64.4 °F 83% 29.78 in 10.0 mi North 9.2 mph - N/A   Clear
8:35 AM 69.8 °F 64.4 °F 83% 29.78 in 10.0 mi NNE 9.2 mph - N/A   Scattered Clouds
8:55 AM 69.8 °F 64.4 °F 83% 29.79 in 10.0 mi North 8.1 mph - N/A   Mostly Cloudy
9:15 AM 71.6 °F 64.4 °F 78% 29.79 in 10.0 mi North 5.8 mph - N/A   Scattered Clouds
9:35 AM 71.6 °F 64.4 °F 78% 29.81 in 10.0 mi NNW 8.1 mph - N/A   Mostly Cloudy
9:55 AM 71.6 °F 64.4 °F 78% 29.81 in 10.0 mi NNW 9.2 mph - N/A   Overcast
10:15 AM 71.6 °F 64.4 °F 78% 29.82 in 10.0 mi NW 11.5 mph 16.1 mph N/A   Overcast
10:35 AM 69.8 °F 64.4 °F 83% 29.83 in 10.0 mi NW 11.5 mph 17.3 mph N/A   Overcast
10:55 AM 71.6 °F 62.6 °F 73% 29.84 in 10.0 mi WNW 16.1 mph - N/A   Overcast
11:15 AM 71.6 °F 62.6 °F 73% 29.85 in 10.0 mi NW 18.4 mph 24.2 mph N/A   Overcast
11:35 AM 71.6 °F 60.8 °F 69% 29.86 in 10.0 mi NW 19.6 mph 25.3 mph N/A   Overcast
11:55 AM 71.6 °F 59.0 °F 64% 29.87 in 10.0 mi NW 20.7 mph 27.6 mph N/A   Overcast
12:15 PM 71.6 °F 60.8 °F 69% 29.88 in 10.0 mi NW 18.4 mph 25.3 mph N/A   Overcast
12:35 PM 73.4 °F 60.8 °F 65% 29.88 in 10.0 mi NW 20.7 mph 28.8 mph N/A   Overcast
12:55 PM 73.4 °F 60.8 °F 65% 29.88 in 10.0 mi NW 21.9 mph 29.9 mph N/A   Partly Cloudy
1:15 PM 73.4 °F 60.8 °F 65% 29.88 in 10.0 mi WNW 24.2 mph 29.9 mph N/A   Partly Cloudy
1:35 PM 75.2 °F 60.8 °F 61% 29.88 in 10.0 mi NW 18.4 mph 26.5 mph N/A   Scattered Clouds
1:55 PM 73.4 °F 60.8 °F 65% 29.89 in 10.0 mi NW 20.7 mph 27.6 mph N/A   Mostly Cloudy
2:15 PM 71.6 °F 60.8 °F 69% 29.90 in 10.0 mi NNW 23.0 mph 29.9 mph N/A   Mostly Cloudy
2:35 PM 71.6 °F 59.0 °F 64% 29.91 in 10.0 mi NW 21.9 mph 27.6 mph N/A   Mostly Cloudy
2:55 PM 69.8 °F 57.2 °F 64% 29.91 in 10.0 mi NW 19.6 mph 31.1 mph N/A   Overcast
3:15 PM 69.8 °F 57.2 °F 64% 29.92 in 10.0 mi NW 21.9 mph 28.8 mph N/A   Overcast
3:35 PM 68.0 °F 55.4 °F 64% 29.93 in 10.0 mi NW 23.0 mph 31.1 mph N/A   Overcast
3:55 PM 68.0 °F 57.2 °F 68% 29.93 in 10.0 mi NW 17.3 mph 27.6 mph N/A   Overcast
4:15 PM 68.0 °F 55.4 °F 64% 29.94 in 10.0 mi NW 20.7 mph 26.5 mph N/A   Overcast
4:35 PM 68.0 °F 55.4 °F 64% 29.94 in 10.0 mi NW 23.0 mph 28.8 mph N/A   Overcast
4:55 PM 66.2 °F 55.4 °F 68% 29.96 in 10.0 mi NW 19.6 mph 29.9 mph N/A   Overcast
5:15 PM 64.4 °F 53.6 °F 68% 29.97 in 10.0 mi NNW 21.9 mph 27.6 mph N/A   Overcast
5:35 PM 64.4 °F 55.4 °F 73% 29.97 in 10.0 mi NNW 19.6 mph 23.0 mph N/A   Overcast
5:55 PM 64.4 °F 53.6 °F 68% 29.98 in 10.0 mi NNW 17.3 mph - N/A   Overcast
6:15 PM 64.4 °F 53.6 °F 68% 29.99 in 10.0 mi NNW 18.4 mph 23.0 mph N/A   Overcast
6:35 PM 64.4 °F 53.6 °F 68% 29.99 in 10.0 mi North 15.0 mph 21.9 mph N/A   Overcast
6:55 PM 64.4 °F 53.6 °F 68% 30.00 in 10.0 mi North 12.7 mph - N/A   Overcast
7:15 PM 64.4 °F 51.8 °F 64% 30.01 in 10.0 mi NNW 13.8 mph - N/A   Overcast
7:35 PM 64.4 °F 53.6 °F 68% 30.02 in 10.0 mi NNW 11.5 mph - N/A   Mostly Cloudy
7:55 PM 64.4 °F 53.6 °F 68% 30.02 in 10.0 mi NNW 10.4 mph - N/A   Clear
8:15 PM 64.4 °F 53.6 °F 68% 30.03 in 10.0 mi NW 10.4 mph - N/A   Clear
8:35 PM 64.4 °F 55.4 °F 73% 30.04 in 9.0 mi WNW 9.2 mph - N/A   Clear
8:55 PM 62.6 °F 55.4 °F 77% 30.04 in 10.0 mi WNW 9.2 mph - N/A   Clear
9:15 PM 62.6 °F 53.6 °F 72% 30.04 in 10.0 mi WNW 9.2 mph - N/A   Clear
9:35 PM 62.6 °F 53.6 °F 72% 30.04 in 10.0 mi West 8.1 mph - N/A   Clear
9:55 PM 62.6 °F 53.6 °F 72% 30.05 in 10.0 mi West 10.4 mph - N/A   Clear
10:15 PM 62.6 °F 55.4 °F 77% 30.05 in 10.0 mi West 10.4 mph - N/A   Clear
10:35 PM 60.8 °F 55.4 °F 82% 30.07 in 10.0 mi WNW 11.5 mph - N/A   Clear
10:55 PM 60.8 °F 55.4 °F 82% 30.07 in 10.0 mi NW 10.4 mph - N/A   Clear
11:15 PM 60.8 °F 53.6 °F 77% 30.07 in 10.0 mi NNW 10.4 mph - N/A   Clear
11:35 PM 60.8 °F 53.6 °F 77% 30.07 in 10.0 mi NNW 8.1 mph - N/A   Clear
11:55 PM 59.0 °F 53.6 °F 82% 30.07 in 10.0 mi NW 5.8 mph - N/A   Clear